Regional Weather Roundup
Issued by NWS

Home | Current Version | Previous Version | Text Only | Print | Product List | Glossary On
Versions: 1 2 3 4 5 6 7 8 9 10 11 12 13 14 15 16 17 18 19 20 21 22 23 24 25 26 27 28 29 30 31 32 33 34 35 36 37 38 39 40 41 42 43 44 45 46 47 48 49 50
000
ASUS43 KMKX 191000
RWRWI

WISCONSIN REGIONAL WEATHER ROUNDUP
NATIONAL WEATHER SERVICE MILWAUKEE/SULLIVAN WI
500 AM CDT THU OCT 19 2017

NOTE: "FAIR" INDICATES FEW OR NO CLOUDS BELOW 12,000 FEET WITH NO
SIGNIFICANT WEATHER AND/OR OBSTRUCTIONS TO VISIBILITY.

WIZ001-002-006>008-014>016-023>028-191100-
NORTHWEST WISCONSIN

CITY           SKY/WX    TMP DP  RH WIND       PRES   REMARKS
SUPERIOR ARPT  CLOUDY    45  26  46 SW10      29.95R
ASHLAND        CLOUDY    46  24  42 SW10      29.95R
HAYWARD        CLOUDY    41  26  55 SW5       29.99R
SIREN          CLOUDY    42  28  58 W6        30.00S
CUMBERLAND     CLOUDY    37  28  70 SW3       30.01S
RICE LAKE      CLOUDY    36  31  83 CALM      30.03R
CHETEK         CLOUDY    39  30  69 SW3       30.02R
LADYSMITH      CLOUDY    42  28  58 SW3       30.02R
EAU CLAIRE     NOT AVBL
MENOMONIE      PTCLDY    46  31  56 W5        30.03S
NEW RICHMOND   NOT AVBL
OSCEOLA        CLOUDY    37  32  82 CALM      30.05R
$$

WIZ003>005-009-010-017-018-191100-
NORTH CENTRAL WISCONSIN

CITY           SKY/WX    TMP DP  RH WIND       PRES   REMARKS
MANITOWISH WTR CLOUDY    45  21  39 W9        29.94R
ARBOR VITAE    CLOUDY    47  23  39 W7        29.94R
WOODRUFF       CLOUDY    47  23  39 W7        29.94R
RHINELANDER    PTCLDY    38  25  59 W8        29.97R WCI  32
EAGLE RIVER    CLOUDY    46  19  33 W8        29.93R
LAND O LAKES   CLOUDY    44  20  37 W5        29.94R
PHILLIPS       CLOUDY    42  25  50 SW6       29.97R
TOMAHAWK       CLOUDY    40  22  48 W3        29.98R
MEDFORD        PTCLDY    41  27  56 SW5       30.00R
MERRILL        CLOUDY    43  26  51 W5        29.99R
$$

WIZ029-030-035-036-043>047-191100-
CENTRAL WISCONSIN

CITY           SKY/WX    TMP DP  RH WIND       PRES   REMARKS
WAUSAU         CLOUDY    45  28  51 W8        29.99R
MOSINEE        CLOUDY    43  28  56 W6        30.02R
MARSHFIELD     PTCLDY    43  27  53 W5        30.02R
STEVENS POINT  CLOUDY    46  27  46 W6        30.03R
WAUPACA        MOCLDY    48  29  47 W6        30.02R
WAUTOMA        MOCLDY    47  29  49 W7        30.05R
WISC RAPIDS    CLOUDY    46  28  49 W7        30.05R
CAMP DOUGLAS   NOT AVBL
$$

WIZ011>013-019>022-031-037>040-048>050-191100-
NORTHEAST WISCONSIN

CITY           SKY/WX    TMP DP  RH WIND       PRES   REMARKS
ANTIGO         CLOUDY    41  26  53 W8        29.98R
SHAWANO        PTCLDY    49  26  41 SW3       29.98R
OCONTO         CLOUDY    45  27  49 W3        29.98R
STURGEON BAY   CLOUDY    54  28  36 W8        29.98R
GREEN BAY      CLOUDY    49  31  49 SW6       30.00R
MANITOWOC      CLOUDY    52  30  43 W8        30.01R
APPLETON       CLOUDY    46  25  42 SW9       30.00R
CLINTONVILLE   CLOUDY    48  25  40 W7        30.01R
OSHKOSH        PTCLDY    49  29  46 SW3       30.03R
$$

WIZ032>034-041-042-053>061-191100-
SOUTHWEST WISCONSIN

CITY           SKY/WX    TMP DP  RH WIND       PRES   REMARKS
LA CROSSE      CLOUDY    45  36  70 CALM      30.06R
SPARTA         PTCLDY    37  33  86 CALM      30.06S
VIROQUA        CLOUDY    48  30  48 NW3       30.06S
BOSCOBEL       PTCLDY    41  39  93 CALM      30.08S
PRAIRIE DU CHI CLOUDY    44  37  74 E3        30.08R
PLATTEVILLE    CLOUDY    47  44  87 CALM      30.08R
$$

WIZ056-057-062-063-064-067-068-191100-
SOUTH CENTRAL WISCONSIN

CITY           SKY/WX    TMP DP  RH WIND       PRES   REMARKS
REEDSBURG      CLOUDY    45  35  66 CALM      30.06R
BARABOO/DELLS  CLOUDY    44  31  60 CALM      30.06R
LONE ROCK      NOT AVBL
MINERAL POINT  CLOUDY    50  36  57 CALM      30.08R
MADISON        PTCLDY    45  40  82 CALM      30.06R
MIDDLETON      PTCLDY    47  36  64 CALM      30.07R
WATERTOWN      CLOUDY    45  41  86 CALM      30.06R
MONROE         CLOUDY    52  41  66 NW7       30.07R
JANESVILLE     CLOUDY    48  46  93 CALM      30.07R
$$

WIZ051-052-058>065-066-070>072-191100-
SOUTHEAST WISCONSIN

CITY           SKY/WX    TMP DP  RH WIND       PRES   REMARKS
MILWAUKEE      CLOUDY    58  34  40 NW9       30.04R
WAUKESHA       CLOUDY    52  36  54 NW10      30.05R
MILWAUKEE/TIMM CLOUDY    52  32  46 W8        30.05R
RACINE         PTCLDY    54  45  71 W5        30.06R
BURLINGTON     CLOUDY    51  43  73 NW8       30.05R
KENOSHA        CLOUDY    51  43  74 W5        30.06R
FOND DU LAC    CLOUDY    50  27  40 W5        30.04R
SHEBOYGAN      PTCLDY    52  31  44 W7        30.02R
WEST BEND      CLOUDY    52  30  43 W8        30.03R
JUNEAU         PTCLDY    48  29  47 CALM      30.06R
$$

LSZ147-162-191100-
LAKE SUPERIOR

STATION/POSITION TIME  TEMP    WIND        PRES    WAVE
                       AIR SEA DIR/SP/G            HT/PER
                 (UTC) (F)     (DEG/KT/KT) (MB)    (FT/S)
W MID LAKE BUOY  0850   54 52              1009.1R   6/ 6
DEVILS ISLAND    0900   54     250/ 25/ 31 1011.6R
SAXON HARBOR     0940   52     230/  8/ 16 1013.2R
$$

LMZ867-665-643>646-191100-
LAKE MICHIGAN

STATION/POSITION TIME  TEMP    WIND        PRES    WAVE
                       AIR SEA DIR/SP/G            HT/PER
                 (UTC) (F)     (DEG/KT/KT) (MB)    (FT/S)
S GREEN BAY BUOY 0930   56 58  260/ 12/ 14 1014.6R
N MID LAKE BUOY  0850   59 58  290/ 17/ 21 1012.4R   6/ 8
NORTHPORT PIER   0940   56     290/  8/ 13 1013.5R
KEWAUNEE LAKESHO 0900   55     270/  8/ 11 1013.7
SHEBOYGAN LAKESH 0900   58     290/ 12/ 14 1015.5R
PORT WASHINGTON  0940   56     290/  8/ 13 1017.3R
MILWAUKEE LAKESH 0950   58     300/  6/  8   N/A
S MID LAKE BUOY  0850   61 61  280/ 17/ 21 1016.1R   4/ 6
KENOSHA   LAKESH 0900   58     270/  5/  8 1016.9
$$

TC  - TEMPERATURE IN CELSIUS
VSB - VISIBILITY IN STATUTE MILES
WCI - WIND CHILL INDEX
HX  - HEAT INDEX




USA.gov is the U.S. government's official web portal to all federal, state and local government web resources and services.